User: anonymous   Login
Location: Newark
(46.7000°N, 60.6000°W)
Time: 01:08:01
(UTC+00:00)
Language:

Explorer 7 - Orbit

View from above orbital plane
View from above orbital plane
View from above satellite
View from above satellite

Ground track
Ground track

The orbit data is extracted from the following two-line orbital elements,

1    22U 59009A   20300.83025876  .00000629  00000-0  69801-4 0  9996
2    22  50.2835 205.5999 0139473  40.6698 320.4566 14.95251025244985
Epoch (UTC): 26 October 2020 19:55:34
Eccentricity: 0.0139473
inclination: 50.2835°
perigee height: 484 km
apogee height: 678 km
right ascension of ascending node: 205.5999°
argument of perigee: 40.6698°
revolutions per day: 14.95251025
mean anomaly at epoch: 320.4566°
orbit number at epoch: 24498

The dashed part of the orbit path shows where the satellite is in the earth's shadow,  

DLR